Regional Weather Roundup
Issued by NWS Jackson, KY

Home | Current Version | Previous Version | Text Only | Print | Product List | Glossary Off
Versions: 1 2 3 4 5 6 7 8 9 10 11 12 13 14 15 16 17 18 19 20 21 22 23 24 25 26 27 28 29 30 31 32 33 34 35 36 37 38 39 40 41 42 43 44 45 46 47 48 49 50

000
ASUS43 KJKL 200010
RWRJKL

EAST KENTUCKY HOURLY WEATHER ROUNDUP
NATIONAL WEATHER SERVICE JACKSON KY
700 PM EST SUN FEB 19 2017

NOTE: "FAIR" INDICATES FEW OR NO CLOUDS BELOW 12,000 FEET WITH
NO SIGNIFICANT WEATHER AND/OR OBSTRUCTIONS TO VISIBILITY.

* THESE REPORTS ARE NOT UNDER NWS QUALITY CONTROL AND MAY NOT
  REPORT WEATHER SUCH AS PRECIPITATION AND FOG.

KYZ079-080-083-085-087-088-110-112-115-119-120-200100
...EASTERN KENTUCKY...

CITY           SKY/WX    TMP DP  RH WIND       PRES   REMARKS
JACKSON        CLEAR     58  44  60 CALM      30.15R
6HR MIN TEMP:  54; 6HR MAX TEMP:  63;

LONDON         CLEAR     56  44  64 CALM      30.14R
6HR MIN TEMP:  55; 6HR MAX TEMP:  64;

SOMERSET*      CLEAR     57  45  62 CALM      30.14S
MONTICELLO*    CLEAR     49  44  83 W8        30.14S
6HR MIN TEMP:  49; 6HR MAX TEMP:  67;

WILLIAMSBURG*  CLEAR     59  46  63 N6        30.13R
MIDDLESBORO*   CLEAR     53  46  78 CALM      30.15R
6HR MIN TEMP:  53; 6HR MAX TEMP:  65;

HARLAN APT*    CLEAR     55  43  62 CALM      30.15R
PIKE CO APT*     N/A     56  44  64 NW3       30.15R
BIG SANDY APT* CLEAR     55  45  69 CALM      30.15R
6HR MIN TEMP:  55; 6HR MAX TEMP:  61;

MOREHEAD APT*  CLOUDY    52  45  76 CALM      30.18R
ASHLAND*       CLOUDY    52  45  76 NW3       30.15R
$$

KYZ035-036-041-042-044-050-067-078-099-200100
...CENTRAL KENTUCKY...

CITY           SKY/WX    TMP DP  RH WIND       PRES   REMARKS
MT STERLING*   CLEAR     50  46  87 E5        30.18R
FLEMING/MASON* CLOUDY    50  46  85 SW3       30.17S
DANVILLE*      CLEAR     52  46  82 NE5       30.15R
LEXINGTON      CLEAR     50  45  83 NE8       30.15R
6HR MIN TEMP:  50; 6HR MAX TEMP:  60;

FRANKFORT      CLEAR     50  45  83 CALM      30.14R
6HR MIN TEMP:  50; 6HR MAX TEMP:  58;

LOUISVILLE     PTCLDY    53  47  79 W5        30.13S
6HR MIN TEMP:  52; 6HR MAX TEMP:  59;

LEBANON*         N/A     55  48  76 N3        30.13S
GLASGOW*       CLEAR     55  48  79 CALM      30.13S
BOWLING GREEN  CLEAR     56  49  77 SE5       30.12S
6HR MIN TEMP:  56; 6HR MAX TEMP:  66;

$$

KYZ091>093-OHZ055-061-077-WVZ005-015-034-035-042-200100
...SOUTHERN OHIO/WEST VIRGINIA...

CITY           SKY/WX    TMP DP  RH WIND       PRES   REMARKS
COVINGTON      PTCLDY    50  46  86 S7        30.13R
COLUMBUS       PTCLDY    52  44  74 S6        30.11S
DAYTON         PTCLDY    52  44  74 S8        30.12R
WILMINGTON     CLEAR     48  44  86 S8        30.13R
HUNTINGTON     CLOUDY    53  45  74 CALM      30.15R
CHARLESTON     CLOUDY    52  44  74 CALM      30.16R
PINEVILLE*     CLEAR     44  39  83 MISG      30.20R
BECKLEY        MOCLDY    47  41  80 CALM      30.15R
BLUEFIELD      CLEAR     47  40  76 CALM      30.15R
LOGAN CO APT*    N/A     54  45  71 CALM      30.14R
$$

VAZ002-007-008-TNZ017-027-036-066-071-200100
...SOUTHWEST VIRGINIA/EAST TENNESSEE...

CITY           SKY/WX    TMP DP  RH WIND       PRES   REMARKS
WISE*          CLEAR     54  39  58 CALM      30.16R
JONESVILLE*      N/A     54  45  71 CALM      30.16R
ABINGDON*      CLEAR     52  45  76 CALM      30.15R
BRISTOL        CLEAR     53  43  68 CALM      30.14R
MORRISTOWN*    PTCLDY    57  45  62 SW5       30.13R
SEVIERVILLE*   CLEAR     55  45  67 CALM      30.13R
KNOXVILLE      CLEAR     60  44  55 SE3       30.12R
LAFOLLETTE*    CLEAR     55  46  71 CALM      30.16R
OAK RIDGE      CLEAR     57  46  66 CALM      30.14R
CROSSVILLE     CLEAR     60  45  57 NW6       30.14R
NASHVILLE      PTCLDY    63  49  60 E5        30.11F
$$

...KEY TO REMARKS...
VSB - VISIBILITY IN MILES
WCI - WIND CHILL INDEX
HX  - HEAT INDEX

$$



USA.gov is the U.S. government's official web portal to all federal, state and local government web resources and services.